TimeCST,TemperatureF,Dew PointF,Humidity,Sea Level PressureIn,VisibilityMPH,Wind Direction,Wind SpeedMPH,Gust SpeedMPH,PrecipitationIn,Events,Conditions,WindDirDegrees,DateUTC
12:53 AM,28.0,14.0,56,30.02,10.0,ESE,4.6,-,N/A,,Clear,120,2014-01-31 06:53:00
1:53 AM,30.0,14.0,51,30.03,10.0,SSE,6.9,-,N/A,,Clear,150,2014-01-31 07:53:00
2:53 AM,30.9,12.9,47,30.04,10.0,SSW,3.5,-,N/A,,Clear,210,2014-01-31 08:53:00
3:53 AM,30.0,12.9,49,30.05,10.0,South,3.5,-,N/A,,Clear,180,2014-01-31 09:53:00
4:53 AM,26.1,15.1,63,30.05,10.0,SE,3.5,-,N/A,,Clear,130,2014-01-31 10:53:00
5:53 AM,24.1,16.0,71,30.06,10.0,SE,3.5,-,N/A,,Clear,140,2014-01-31 11:53:00
6:53 AM,21.9,15.1,75,30.07,10.0,Calm,Calm,-,N/A,,Clear,0,2014-01-31 12:53:00
7:53 AM,26.1,16.0,66,30.09,10.0,Calm,Calm,-,N/A,,Mostly Cloudy,0,2014-01-31 13:53:00
8:53 AM,34.0,16.0,48,30.09,10.0,NE,4.6,-,N/A,,Mostly Cloudy,50,2014-01-31 14:53:00
9:53 AM,37.0,17.1,44,30.10,10.0,ESE,3.5,-,N/A,,Overcast,120,2014-01-31 15:53:00
10:53 AM,39.9,15.1,36,30.09,10.0,SE,6.9,-,N/A,,Overcast,140,2014-01-31 16:53:00
11:53 AM,39.9,18.0,41,30.07,10.0,SSE,6.9,-,N/A,,Overcast,150,2014-01-31 17:53:00
12:53 PM,41.0,19.0,41,30.05,10.0,East,4.6,-,N/A,,Overcast,100,2014-01-31 18:53:00
1:25 PM,42.1,19.9,41,30.02,10.0,ESE,5.8,-,N/A,,Overcast,110,2014-01-31 19:25:00
1:53 PM,41.0,27.0,57,30.03,10.0,SSE,8.1,-,N/A,,Overcast,150,2014-01-31 19:53:00
2:53 PM,37.0,35.1,93,30.03,2.0,SE,5.8,-,0.00,,Overcast,130,2014-01-31 20:53:00
3:00 PM,37.0,35.1,93,30.02,1.8,SE,5.8,-,0.00,,Overcast,130,2014-01-31 21:00:00
3:11 PM,37.0,35.1,93,30.02,2.0,SE,5.8,-,0.00,,Overcast,130,2014-01-31 21:11:00
3:20 PM,37.0,35.1,93,30.02,1.5,SE,6.9,-,0.00,,Overcast,130,2014-01-31 21:20:00
3:28 PM,36.0,34.0,93,30.02,1.2,ESE,9.2,-,0.01,,Overcast,120,2014-01-31 21:28:00
3:53 PM,35.1,34.0,96,30.03,1.5,ESE,8.1,-,0.01,,Overcast,120,2014-01-31 21:53:00
4:51 PM,35.6,33.8,93,30.02,1.2,East,5.8,-,N/A,,Overcast,100,2014-01-31 22:51:00
4:53 PM,35.1,34.0,96,30.03,1.2,East,4.6,-,N/A,,Overcast,100,2014-01-31 22:53:00
5:17 PM,35.1,34.0,96,30.02,2.5,ESE,5.8,-,N/A,,Overcast,110,2014-01-31 23:17:00
5:53 PM,35.1,34.0,96,30.03,2.5,East,5.8,-,N/A,,Overcast,90,2014-01-31 23:53:00
6:37 PM,36.0,34.0,93,30.00,3.0,ESE,10.4,-,N/A,,Overcast,120,2014-02-01 00:37:00
6:53 PM,36.0,35.1,97,30.02,4.0,ESE,6.9,-,N/A,,Overcast,110,2014-02-01 00:53:00
7:33 PM,36.0,35.1,97,30.01,3.0,East,5.8,-,N/A,,Overcast,100,2014-02-01 01:33:00
7:53 PM,37.0,36.0,96,30.01,2.5,ENE,3.5,-,N/A,,Overcast,70,2014-02-01 01:53:00
8:14 PM,37.0,35.1,93,30.00,3.0,East,4.6,-,N/A,,Overcast,80,2014-02-01 02:14:00
8:24 PM,37.0,35.1,93,30.01,3.0,NE,3.5,-,N/A,,Overcast,50,2014-02-01 02:24:00
8:31 PM,37.0,35.1,93,30.00,2.5,East,5.8,-,N/A,,Overcast,80,2014-02-01 02:31:00
8:53 PM,36.0,35.1,97,29.99,2.0,East,5.8,-,N/A,,Overcast,90,2014-02-01 02:53:00
9:14 PM,37.0,36.0,96,29.99,3.0,NE,3.5,-,N/A,,Overcast,50,2014-02-01 03:14:00
9:53 PM,37.0,36.0,96,29.97,3.0,East,3.5,-,N/A,,Overcast,80,2014-02-01 03:53:00
10:53 PM,37.0,36.0,96,29.98,3.0,NNE,3.5,-,N/A,,Overcast,30,2014-02-01 04:53:00
11:23 PM,37.0,36.0,96,29.97,3.0,ENE,4.6,-,N/A,,Overcast,60,2014-02-01 05:23:00
11:53 PM,37.0,36.0,96,29.97,3.0,ENE,4.6,-,N/A,,Overcast,70,2014-02-01 05:53:00